Weather History for Joplin, MO

Change the Weather History Date:

Wednesday, February 20, 2013

  Actual Average Record
Temperature  
Mean Temperature 30 °F 41 °F  
Max Temperature 35 °F 52 °F 78 °F (1981)
Min Temperature 25 °F 31 °F 16 °F (1963)
Degree Days  
Heating Degree Days 35 24  
Month to date heating degree days 504 527  
Since 1 July heating degree days 2857 3076  
Cooling Degree Days 0 0  
Month to date cooling degree days 0 0  
Year to date cooling degree days 1 0  
Moisture  
Dew Point 12 °F    
Average Humidity 47    
Maximum Humidity 55    
Minimum Humidity 38    
Precipitation  
Precipitation T in 0.09 in 2.08 in (1997)
Month to date precipitation 0.83 1.58  
Year to date precipitation 3.28 3.61  
Sea Level Pressure  
Sea Level Pressure 30.23 in    
Wind  
Wind Speed 8 mph (East)    
Max Wind Speed 14 mph    
Max Gust Speed 21 mph    
Visibility 10 miles    
Events Rain , Snow    
T = Trace of Precipitation, MM = Missing Value Source: NWS Daily Summary

Daily Weather History Graph

Daily Weather History Graph

Search for Another Location

Airport:

Trip Planner

Search our weather history database for the weather conditions in past years. The results will help you decide how hot, cold, wet, or windy it might be!

Date:

Astronomy

Feb. 20, 2013 Rise Set
Actual Time 7:00 AM CST 6:03 PM CST
Civil Twilight 6:34 AM CST 6:29 PM CST
Nautical Twilight 6:03 AM CST 7:00 PM CST
Astronomical Twilight 5:33 AM CST 7:30 PM CST
Moon 1:29 PM CST (2/20) 3:17 AM CST (2/20)
Length of Visible Light 11h 55m
Length of Day
11h 02m
Waxing Gibbous, 76% of the Moon is Illuminated
Feb 20
Waxing Gibbous
Feb 25
Full
Mar 4
Last Quarter
Mar 11
New
Mar 19
First Quarter

Hourly Weather History & Observations

Time (CST) Temp. Windchill Dew Point Humidity Pressure Visibility Wind Dir Wind Speed Gust Speed Precip Events Conditions
12:53 AM 28.0 °F 24.2 °F 12.0 °F 51% 30.34 in 10.0 mi ENE 3.5 mph - N/A   Clear
1:53 AM 27.0 °F 21.6 °F 12.9 °F 56% 30.33 in 10.0 mi ENE 4.6 mph - N/A   Clear
2:53 AM 26.1 °F 16.8 °F 9.0 °F 49% 30.31 in 10.0 mi ENE 9.2 mph - N/A   Clear
3:53 AM 25.0 °F 16.3 °F 9.0 °F 51% 30.29 in 10.0 mi ENE 8.1 mph - N/A   Clear
4:53 AM 26.1 °F 18.4 °F 10.9 °F 53% 30.32 in 10.0 mi East 6.9 mph - N/A   Clear
5:53 AM 26.1 °F 15.6 °F 9.0 °F 49% 30.32 in 10.0 mi East 11.5 mph - N/A   Clear
6:53 AM 26.1 °F 18.4 °F 10.0 °F 51% 30.33 in 10.0 mi East 6.9 mph - N/A   Clear
7:53 AM 26.1 °F 18.4 °F 8.1 °F 47% 30.35 in 10.0 mi East 6.9 mph - N/A   Scattered Clouds
8:53 AM 27.0 °F 19.5 °F 9.0 °F 47% 30.35 in 10.0 mi East 6.9 mph - N/A   Overcast
9:53 AM 28.0 °F 21.7 °F 10.0 °F 47% 30.34 in 10.0 mi ENE 5.8 mph - N/A   Overcast
10:53 AM 28.9 °F 21.9 °F 10.0 °F 45% 30.34 in 10.0 mi ENE 6.9 mph - N/A   Overcast
11:53 AM 30.0 °F 21.7 °F 10.9 °F 45% 30.30 in 10.0 mi East 9.2 mph - N/A   Overcast
12:53 PM 32.0 °F 24.8 °F 12.0 °F 44% 30.28 in 10.0 mi East 8.1 mph - N/A   Overcast
1:53 PM 33.1 °F 27.7 °F 12.0 °F 42% 30.24 in 10.0 mi East 5.8 mph - N/A   Overcast
2:53 PM 34.0 °F 26.6 °F 14.0 °F 44% 30.20 in 10.0 mi NE 9.2 mph - N/A   Overcast
3:53 PM 34.0 °F 26.6 °F 12.9 °F 42% 30.19 in 10.0 mi East 9.2 mph - N/A   Overcast
4:53 PM 35.6 °F 28.0 °F 12.2 °F 38% 30.13 in 10.0 mi East 10.4 mph - N/A   Overcast
5:53 PM 33.1 °F 24.9 °F 10.9 °F 40% 30.15 in 10.0 mi East 10.4 mph - N/A   Scattered Clouds
6:53 PM 33.1 °F 26.9 °F 12.0 °F 42% 30.15 in 10.0 mi East 6.9 mph - N/A   Scattered Clouds
7:53 PM 33.1 °F 26.1 °F 14.0 °F 46% 30.14 in 10.0 mi ENE 8.1 mph - N/A   Overcast
8:53 PM 33.8 °F 24.3 °F 10.4 °F 38% 30.09 in 10.0 mi East 13.8 mph 20.7 mph N/A   Overcast
9:53 PM 33.1 °F 23.9 °F 12.9 °F 43% 30.12 in 8.0 mi East 12.7 mph 18.4 mph 0.00 in Snow Light Snow
10:08 PM 33.8 °F 24.8 °F 12.2 °F 41% 30.10 in 10.0 mi East 12.7 mph 29.9 mph 0.00 in Rain Light Freezing Rain
10:53 PM 32.0 °F 23.6 °F 15.1 °F 50% 30.12 in 10.0 mi ESE 10.4 mph 41.4 mph 0.00 in Rain Light Freezing Rain
11:21 PM 32.0 °F 21.6 °F 17.6 °F 55% 30.10 in 10.0 mi East 15.0 mph 84.0 mph 0.00 in   Overcast
11:32 PM 32.0 °F 24.2 °F 17.6 °F 55% 30.10 in 10.0 mi East 9.2 mph - 0.00 in Rain Light Freezing Rain
11:53 PM 30.9 °F 21.2 °F 21.0 °F 67% 30.10 in 8.0 mi East 12.7 mph - 0.01 in Rain Light Freezing Rain